Weather observations for the past three days for
San Angelo, Mathis Field
Imperial (Metric)
Date Time (cdt) Wind (mph) Vis. (mi.) Weather Sky Cond. Temperature (ºF) Relative Humidity Wind Chill (°F) Heat Index (°F) Pressure Precipitation (in)
Air Dwpt 6 hour altimeter (in) sea level (mb) 1 hr 3 hr 6 hr
Max. Min.
02 13:51 Calm 10.00 Fair CLR 68 44.1 42% 30.21 1022.2
02 12:51 Vrbl 6 10.00 Fair CLR 66.9 45 66.9 50 45% 30.23 1022.9
02 11:51 Calm 10.00 Fair CLR 64.9 46.9 52% 30.24 1023.6
02 10:51 Vrbl 3 10.00 Fair CLR 63 46.9 56% 30.24 1023.5
02 09:51 SW 6 10.00 Fair CLR 60.1 45 58% 30.24 1023.3
02 08:51 W 3 10.00 A Few Clouds FEW095 55.9 48.9 77% 30.23 1023.2
02 07:51 W 3 10.00 A Few Clouds FEW090 51.1 50 96% 30.22 1023.0
02 06:51 W 6 10.00 Overcast OVC090 51.1 48.9 52 46.9 92% 30.2 1022.2
02 05:51 W 7 10.00 Overcast OVC090 51.1 48.9 92% 30.18 1021.4
02 04:51 NW 3 10.00 Mostly Cloudy BKN090 52 46.9 83% 30.15 1020.5
02 03:51 N 5 10.00 Overcast OVC090 52 48 86% 30.13 1019.9
02 02:51 NW 6 10.00 Overcast OVC095 52 48 86% 30.15 1020.4
02 01:51 NW 5 10.00 Overcast OVC100 51.1 46.9 86% 30.15 1020.6
02 00:51 Calm 10.00 Mostly Cloudy BKN100 46.9 45 57 46 93% 30.15 1020.6
01 23:51 Calm 10.00 Partly Cloudy SCT120 46.9 45 93% 30.14 1020.4
01 22:51 Calm 10.00 Fair CLR 50 46 86% 30.13 1019.9
01 21:51 NE 6 10.00 Fair CLR 53.1 45 74% 30.11 1019.2
01 20:51 NE 7 10.00 Overcast OVC090 55 44.1 67% 30.09 1018.3
01 19:51 NE 9 10.00 Partly Cloudy FEW035 SCT100 55.9 44.1 65% 30.05 1016.9
01 18:51 NE 14 10.00 Mostly Cloudy BKN026 BKN032 55.9 48 59 53.1 75% 30.03 1016.2 0.19
01 17:51 NE 13 G 21 10.00 Overcast OVC026 57.9 48.9 72% 30 1015.3
01 16:51 NE 14 G 24 10.00 Overcast BKN021 OVC100 57 48.9 74% 29.99 1014.8
01 15:51 NE 21 G 30 10.00 Mostly Cloudy and Breezy BKN016 55.9 50 81% 29.99 1014.7 0.19
01 14:51 NE 15 G 26 10.00 Light Rain FEW012 BKN060 OVC075 55.9 53.1 90% 30.02 1016.0 0.03
01 13:51 N 16 4.00 Rain Fog/Mist SCT008 BKN018 OVC034 53.1 52 96% 30.04 1016.8 0.16
01 12:51 NE 15 G 22 4.00 Rain Fog/Mist OVC008 54 52 55.9 54 93% 30.03 1016.4 0.15
01 11:51 NE 14 G 21 4.00 Fog/Mist BKN006 OVC014 55.9 54 93% 30 1015.2 0.05
01 10:51 NE 12 1.00 Light Rain Fog/Mist BKN010 OVC016 55 54 96% 30.01 1015.3 0.08
01 09:51 NE 14 G 25 0.75 Thunderstorm Light Rain Fog/Mist OVC004 55 54 96% 29.97 1014.0 0.02 0.02
01 08:51 NE 14 G 24 1.00 Fog/Mist OVC006 55 54 96% 29.95 1013.5
01 07:51 NE 12 7.00 Overcast OVC007 55.9 55 97% 29.95 1013.6
01 06:51 NE 8 7.00 Overcast BKN004 OVC010 55.9 55 57.9 55.9 97% 29.93 1012.6 0.05 0.09
01 05:51 E 9 3.00 Light Rain Fog/Mist BKN003 BKN008 OVC013 55.9 55.9 100% 29.95 1013.6 0.04
01 04:51 NE 8 3.00 Light Rain Fog/Mist OVC004 57 57 100% 29.96 1013.8
01 03:51 NE 10 2.50 Fog/Mist OVC005 57 55.9 96% 29.94 1012.8
01 02:51 NE 9 7.00 Overcast OVC007 57.9 57 97% 29.96 1013.7
01 01:51 NE 7 5.00 Fog/Mist OVC004 57.9 57 97% 29.97 1013.9
01 00:51 NE 5 2.00 Fog/Mist OVC004 57.9 57 61 57.9 97% 29.99 1014.8
30 23:51 E 5 5.00 Fog/Mist OVC006 57.9 57 97% 29.98 1014.4
30 22:51 NE 8 8.00 Overcast OVC007 59 57 93% 29.99 1014.6
30 21:51 NE 9 8.00 Overcast OVC008 59 57 93% 29.97 1014.0
30 20:51 NE 7 7.00 Overcast OVC009 59 57 93% 29.95 1013.4
30 19:51 NE 12 8.00 Overcast OVC010 60.1 57.9 93% 29.93 1012.7
30 18:51 NE 13 9.00 Overcast OVC011 61 57 63 59 87% 29.92 1012.3
30 17:51 NE 8 7.00 Overcast BKN009 OVC017 60.1 57 90% 29.91 1012.1
30 16:51 NE 12 5.00 Fog/Mist OVC008 59 57 93% 29.92 1012.3
30 15:51 N 12 10.00 Overcast OVC008 62.1 57.9 86% 29.92 1012.2
30 14:51 NE 9 10.00 Overcast OVC007 61 57.9 90% 29.93 1012.7
30 13:51 N 13 10.00 Overcast OVC009 63 59 87% 29.91 1011.7
30 12:51 E 10 10.00 Overcast OVC009 62.1 57.9 62.1 55.9 86% 29.91 1011.9 0.28
30 11:51 E 8 10.00 Overcast OVC010 61 57 87% 29.95 1013.0
30 10:51 NE 8 9.00 Light Rain BKN010 BKN025 OVC100 59 57 93% 29.96 1013.7
30 09:51 E 7 10.00 Overcast SCT007 SCT050 OVC100 57 55.9 96% 29.93 1012.8 0.02 0.28
30 08:51 NE 7 7.00 Overcast FEW008 OVC016 55.9 55 97% 29.98 1014.4 0.01
30 07:51 N 14 G 20 6.00 Thunderstorm Light Rain Fog/Mist FEW007 BKN013 OVC055 55.9 55 97% 29.96 1013.6 0.25
30 06:51 Calm 10.00 Thunderstorm in Vicinity BKN013 BKN045 55.9 54 60.1 55.9 93% 29.93 1012.5 0.04 0.04
30 05:51 E 14 G 20 10.00 Light Rain OVC014 57 53.1 87% 29.89 1011.0
30 04:51 NE 9 10.00 Overcast OVC012 57 52 83% 29.92 1012.3
30 03:51 NE 10 10.00 Overcast OVC012 57 52 83% 29.96 1013.3
30 02:51 NE 10 10.00 Overcast OVC014 57 52 83% 29.95 1013.3
30 01:51 NE 7 10.00 Overcast OVC017 59 53.1 81% 29.96 1013.7
30 00:51 NE 8 G 21 10.00 Overcast OVC019 60.1 52 64 60.1 75% 29.97 1013.7
29 23:51 NE 13 G 20 10.00 Overcast OVC020 60.1 53.1 78% 29.97 1013.8
29 22:51 E 13 10.00 Overcast OVC018 61 53.1 75% 29.98 1013.9
29 21:51 E 10 10.00 Overcast OVC018 61 53.1 75% 29.96 1013.4
29 20:51 NE 10 G 20 10.00 Overcast OVC020 62.1 54 75% 29.95 1013.2
29 19:51 NE 10 10.00 Overcast OVC020 63 54 73% 29.93 1012.1
29 18:51 NE 9 10.00 Overcast OVC019 64 54 64.9 61 70% 29.92 1011.7
29 17:51 NE 12 10.00 Overcast OVC020 64.9 54 68% 29.92 1011.6
29 16:51 E 10 10.00 Overcast OVC021 64.9 54 68% 29.93 1011.9
29 15:51 N 12 10.00 Overcast OVC020 64 53.1 68% 29.95 1012.8
29 14:51 NE 14 10.00 Overcast OVC018 63 54 73% 29.95 1012.5
Date Time (cdt) Wind (mph) Vis. (mi.) Weather Sky Cond. Air Dwpt Max. Min. Relative Humidity Wind Chill (°F) Heat Index (°F) altimeter (in) sea level (mb) 1 hr 3 hr 6 hr
6 hour
Temperature (ºF) Pressure Precipitation (in)